This is the latest recevied weather packets stored in our database for station/object N0HEQ. If no packets are shown the sender has not sent any weather packets the latest 10 day(s).
| Time | Temp. | Humidity | Pressure | Rain* | Wind** | Luminosity | Snow |
|---|---|---|---|---|---|---|---|
| 1777674387 | 16.67° C | 23% | 1021.6 hPa | 0 mm | - | 480 W/m² | - |
| 1777674085 | 16.67° C | 19% | 1021.5 hPa | 0 mm | - | 501 W/m² | - |
| 1777673177 | 15.56° C | 22% | 1021.5 hPa | 0 mm | - | 543 W/m² | - |
| 1777672570 | 16.67° C | 23% | 1021.8 hPa | 0 mm | - | 575 W/m² | - |
| 1777671960 | 16.67° C | 22% | 1021.8 hPa | 0 mm | - | 277 W/m² | - |
| 1777671353 | 16.67° C | 25% | 1021.8 hPa | 0 mm | - | 620 W/m² | - |
| 1777671049 | 17.78° C | 21% | 1021.9 hPa | 0 mm | - | 631 W/m² | - |
| 1777670746 | 16.67° C | 23% | 1022 hPa | 0 mm | - | 647 W/m² | - |
| 1777670443 | 16.11° C | 23% | 1022.1 hPa | 0 mm | - | 684 W/m² | - |
| 1777670139 | 15° C | 23% | 1022.2 hPa | 0 mm | - | 707 W/m² | - |
| 1777669838 | 15.56° C | 24% | 1022.3 hPa | 0 mm | - | 130 W/m² | - |
| 1777669533 | 16.67° C | 25% | 1022.1 hPa | 0 mm | - | 227 W/m² | - |
| 1777669230 | 17.78° C | 23% | 1022.3 hPa | 0 mm | - | 157 W/m² | - |
| 1777668927 | 16.67° C | 23% | 1022.2 hPa | 0 mm | - | 749 W/m² | - |
| 1777667714 | 15.56° C | 24% | 1022.3 hPa | 0 mm | - | 761 W/m² | - |
| 1777667412 | 15.56° C | 28% | 1022.5 hPa | 0 mm | - | 801 W/m² | - |
| 1777665593 | 14.44° C | 29% | 1022.6 hPa | 0 mm | - | 870 W/m² | - |
| 1777661339 | 13.89° C | 36% | 1023.1 hPa | 0 mm | - | 853 W/m² | - |
| 1777660730 | 13.33° C | 33% | 1022.9 hPa | 0 mm | - | 433 W/m² | - |
| 1777660124 | 13.33° C | 31% | 1023.1 hPa | 0 mm | - | 879 W/m² | - |
| 1777659518 | 13.89° C | 32% | 1023.1 hPa | 0 mm | - | 299 W/m² | - |
| 1777658912 | 12.78° C | 33% | 1023.4 hPa | 0 mm | - | 435 W/m² | - |
| 1777658306 | 12.22° C | 38% | 1023.4 hPa | 0 mm | - | 587 W/m² | - |
| 1777658002 | 12.22° C | 33% | 1023.4 hPa | 0 mm | - | 397 W/m² | - |
| 1777657094 | 12.22° C | 38% | 1023.5 hPa | 0 mm | - | 466 W/m² | - |
* Rain latest hour (hover to see other rain measurements)
** Current wind speed in m/s (hover to see current wind gust speed)